Tracking 35331 objects as of 15-Sep-2026
HD Live streaming from Space Station
objects crossing your sky now

SL-12 DEB


SL-12 DEB is no longer on orbit


NORAD ID: 29460
Int'l Code: 1989-039DE
Launch date: May 31, 1989
Source: Commonwealth of Independent States (former USSR) (CIS)
Launch site: TYURATAM MISSILE AND SPACE COMPLEX (TTMTR)
Decay date: 2007-01-03

Note: This is SATELLITE DEBRIS
Your satellite tracking list
Your tracking list is empty




NASA's NSSDC Master Catalog

Two Line Element Set (TLE):
1 29460U 89039DE  06349.09160725 +.00382589 +00000-0 +16982-0 0  9993
2 29460 066.4330 224.3833 5314392 055.7544 339.8016 05.03189118006795
Source of the keplerian elements: AFSPC